Location: Arcones
(41.1182°N, 3.7238°W)
Time: 20:30:11
(UTC+00:00)

NOSS 3-2 (C) - Pass Details

Date: 11 December 2025
Orbit: 672 x 1536 km, 63.4° (Epoch: 02 January)

Event Time Altitude Azimuth Distance (km) Brightness Sun altitude
Rises 17:29:11 0° 226° (SW) 3,050 7.7 -8.0°
Reaches altitude 10° 17:31:25 10° 230° (SW) 2,183 6.8 -8.4°
Maximum altitude 17:36:15 57° 310° (NW) 916 3.6 -9.3°
Drops below altitude 10° 17:42:00 10° 29° (NNE) 2,582 5.3 -10.3°
Enters shadow 17:43:09 - 31° (NNE) 3,016 5.6 -10.5°
